Location: Clairmont
(55.2667°N, 118.8000°W)
Time: 08:55:32
(UTC+00:00)

N. Korean satellite - Pass Details

Date: 29 October 2020
Orbit: 453 x 503 km, 97.2° (Epoch: 03 December)

Event Time Altitude Azimuth Distance (km) Brightness Sun altitude
Rises 01:01:28 0° 187° (S) 2,539 10.5 -5.9°
Reaches altitude 10° 01:03:40 10° 198° (SSW) 1,654 9.7 -6.2°
Maximum altitude 01:06:55 33° 263° (W) 825 8.7 -6.6°
Drops below altitude 10° 01:10:08 10° 329° (NNW) 1,641 9.5 -7.1°
Sets 01:12:19 0° 340° (NNW) 2,514 10.3 -7.4°
